| time (UTC) | temp F | wind direction | speed MPH | gust MPH | rain 1hr in | rain 24hr in | rain mn in | humidity % | barometer mb |
| 20260831181546 | 42 | 354 | 0.0 | 2.0 | 0.00 | 0.14 | 0.09 | 96 | 1000.8 |
| 20260831180055 | 42 | 10 | 0.0 | 4.0 | 0.00 | 0.14 | 0.09 | 96 | 1000.9 |
| 20260831174550 | 42 | 324 | 0.0 | 3.0 | 0.00 | 0.14 | 0.09 | 96 | 1001.2 |
| 20260831173047 | 42 | 25 | 0.0 | 2.0 | 0.00 | 0.14 | 0.09 | 96 | 1001.4 |
| 20260831171557 | 42 | 341 | 0.0 | 2.0 | 0.00 | 0.14 | 0.09 | 97 | 1001.5 |
| 20260831170050 | 41 | 134 | 0.0 | 1.0 | 0.00 | 0.14 | 0.09 | 97 | 1001.6 |
| 20260831164546 | 41 | 134 | 0.0 | 0.0 | 0.00 | 0.14 | 0.09 | 98 | 1001.6 |
| 20260831163059 | 41 | 134 | 0.0 | 1.0 | 0.00 | 0.14 | 0.09 | 98 | 1001.7 |
| 20260831161551 | 40 | 135 | 0.0 | 0.0 | 0.00 | 0.14 | 0.09 | 98 | 1002.0 |
| 20260831160047 | 40 | 150 | 0.0 | 0.0 | 0.00 | 0.14 | 0.09 | 98 | 1002.2 |
| 20260831154606 | 39 | 151 | 0.0 | 0.0 | 0.00 | 0.14 | 0.09 | 98 | 1002.3 |
| 20260831153041 | 39 | 151 | 0.0 | 0.0 | 0.00 | 0.14 | 0.09 | 98 | 1002.6 |
| 20260831151611 | 39 | 151 | 0.0 | 0.0 | 0.00 | 0.14 | 0.09 | 98 | 1002.7 |
| 20260831150049 | 39 | 151 | 0.0 | 0.0 | 0.00 | 0.14 | 0.09 | 97 | 1002.9 |
| 20260831144546 | 38 | 151 | 0.0 | 0.0 | 0.00 | 0.14 | 0.09 | 97 | 1003.1 |
| 20260831143113 | 39 | 151 | 0.0 | 0.0 | 0.00 | 0.14 | 0.09 | 96 | 1003.2 |
| 20260831141550 | 40 | 151 | 0.0 | 0.0 | 0.00 | 0.14 | 0.09 | 97 | 1003.4 |
| 20260831140001 | 40 | 150 | 0.0 | 0.0 | 0.00 | 0.14 | 0.09 | 97 | 1003.6 |
| 20260831134559 | 40 | 150 | 0.0 | 0.0 | 0.00 | 0.14 | 0.09 | 97 | 1003.9 |
| 20260831133046 | 41 | 169 | 0.0 | 2.0 | 0.00 | 0.14 | 0.09 | 97 | 1004.1 |
| 20260831131502 | 41 | 141 | 0.0 | 1.0 | 0.01 | 0.14 | 0.09 | 97 | 1004.3 |
| 20260831130106 | 41 | 164 | 0.0 | 2.0 | 0.01 | 0.14 | 0.09 | 96 | 1004.5 |
| 20260831124558 | 41 | 129 | 0.0 | 2.0 | 0.01 | 0.14 | 0.09 | 96 | 1004.6 |
| 20260831123041 | 41 | 143 | 0.0 | 3.0 | 0.02 | 0.14 | 0.09 | 96 | 1004.8 |
| 20260831121607 | 41 | 147 | 1.0 | 3.0 | 0.01 | 0.13 | 0.08 | 96 | 1005.0 |
| 20260831120050 | 41 | 169 | 1.0 | 2.0 | 0.02 | 0.13 | 0.08 | 96 | 1005.2 |
| 20260831114503 | 42 | 219 | 0.0 | 2.0 | 0.02 | 0.13 | 0.08 | 96 | 1005.5 |
| 20260831113056 | 42 | 238 | 1.0 | 3.0 | 0.03 | 0.12 | 0.07 | 96 | 1005.6 |
| 20260831111555 | 42 | 238 | 0.0 | 4.0 | 0.04 | 0.12 | 0.07 | 96 | 1005.8 |
| 20260831110040 | 43 | 254 | 1.0 | 3.0 | 0.03 | 0.11 | 0.06 | 96 | 1006.0 |
| 20260831104557 | 43 | 219 | 2.0 | 4.0 | 0.04 | 0.11 | 0.06 | 96 | 1006.0 |
| 20260831103053 | 43 | 197 | 2.0 | 5.0 | 0.02 | 0.09 | 0.04 | 95 | 1006.3 |
| 20260831101507 | 43 | 226 | 1.0 | 4.0 | 0.01 | 0.08 | 0.03 | 95 | 1006.3 |
| 20260831100106 | 43 | 196 | 0.0 | 4.0 | 0.02 | 0.08 | 0.03 | 94 | 1006.5 |
| 20260831094610 | 43 | 162 | 0.0 | 3.0 | 0.01 | 0.07 | 0.02 | 94 | 1006.8 |
| 20260831093001 | 44 | 197 | 0.0 | 2.0 | 0.01 | 0.07 | 0.02 | 93 | 1006.9 |
| 20260831091612 | 44 | 143 | 0.0 | 2.0 | 0.02 | 0.07 | 0.02 | 92 | 1007.0 |
| 20260831090052 | 44 | 154 | 0.0 | 1.0 | 0.01 | 0.06 | 0.01 | 91 | 1007.1 |
| 20260831084505 | 44 | 238 | 0.0 | 1.0 | 0.02 | 0.06 | 0.01 | 92 | 1007.2 |
| 20260831083100 | 44 | 98 | 0.0 | 1.0 | 0.03 | 0.06 | 0.01 | 91 | 1007.4 |
| 20260831081555 | 45 | 148 | 0.0 | 1.0 | 0.02 | 0.05 | 0.00 | 88 | 1007.6 |
| 20260831080044 | 45 | 146 | 0.0 | 0.0 | 0.03 | 0.05 | 0.00 | 91 | 1007.7 |
| 20260831074559 | 45 | 259 | 0.0 | 5.0 | 0.03 | 0.04 | 0.04 | 86 | 1007.9 |
| 20260831073051 | 45 | 229 | 1.0 | 2.0 | 0.03 | 0.03 | 0.03 | 88 | 1007.9 |
| 20260831071604 | 46 | 339 | 0.0 | 0.0 | 0.03 | 0.03 | 0.03 | 81 | 1008.0 |
| 20260831064553 | 48 | 148 | 2.0 | 5.0 | 0.01 | 0.01 | 0.01 | 75 | 1008.2 |
| 20260831063041 | 50 | 116 | 4.0 | 11.0 | 0.00 | 0.00 | 0.00 | 67 | 1008.1 |
| 20260831061559 | 47 | 228 | 0.0 | 4.0 | 0.00 | 0.00 | 0.00 | 69 | 1008.0 |
| 20260831054547 | 47 | 129 | 0.0 | 0.0 | 0.00 | 0.00 | 0.00 | 72 | 1008.3 |
| 20260831053101 | 48 | 129 | 0.0 | 0.0 | 0.00 | 0.00 | 0.00 | 72 | 1008.4 |
| 20260831051602 | 48 | 129 | 0.0 | 0.0 | 0.00 | 0.00 | 0.00 | 72 | 1008.5 |
| 20260831050046 | 48 | 225 | 0.0 | 1.0 | 0.00 | 0.00 | 0.00 | 72 | 1008.7 |
| 20260831044600 | 50 | 224 | 0.0 | 0.0 | 0.00 | 0.00 | 0.00 | 64 | 1008.7 |
| 20260831043051 | 50 | 224 | 0.0 | 1.0 | 0.00 | 0.00 | 0.00 | 70 | 1008.9 |
| 20260831041548 | 50 | 224 | 0.0 | 0.0 | 0.00 | 0.00 | 0.00 | 65 | 1009.2 |
| 20260831040002 | 51 | 224 | 0.0 | 0.0 | 0.00 | 0.00 | 0.00 | 64 | 1009.3 |
| 20260831034514 | 52 | 224 | 0.0 | 0.0 | 0.00 | 0.00 | 0.00 | 70 | 1009.6 |
| 20260831033055 | 53 | 224 | 0.0 | 0.0 | 0.00 | 0.00 | 0.00 | 61 | 1009.7 |
| 20260831031544 | 54 | 224 | 0.0 | 0.0 | 0.00 | 0.00 | 0.00 | 58 | 1010.1 |
| 20260831030058 | 55 | 224 | 0.0 | 0.0 | 0.00 | 0.00 | 0.00 | 54 | 1010.2 |
| 20260831024557 | 55 | 224 | 0.0 | 1.0 | 0.00 | 0.00 | 0.00 | 50 | 1010.4 |
| 20260831023044 | 56 | 238 | 0.0 | 2.0 | 0.00 | 0.00 | 0.00 | 50 | 1010.5 |
| 20260831021557 | 56 | 252 | 0.0 | 2.0 | 0.00 | 0.00 | 0.00 | 51 | 1010.8 |
| 20260831020109 | 56 | 238 | 1.0 | 3.0 | 0.00 | 0.00 | 0.00 | 50 | 1010.9 |
| 20260831014545 | 56 | 239 | 0.0 | 3.0 | 0.00 | 0.00 | 0.00 | 48 | 1011.1 |
| 20260831013100 | 57 | 218 | 1.0 | 5.0 | 0.00 | 0.00 | 0.00 | 47 | 1011.3 |
| 20260831011604 | 57 | 201 | 1.0 | 4.0 | 0.00 | 0.00 | 0.00 | 46 | 1011.4 |
| 20260831010043 | 58 | 188 | 1.0 | 4.0 | 0.00 | 0.00 | 0.00 | 47 | 1011.7 |
| 20260831004501 | 58 | 81 | 1.0 | 5.0 | 0.00 | 0.00 | 0.00 | 46 | 1012.1 |
| 20260831003052 | 58 | 258 | 2.0 | 4.0 | 0.00 | 0.00 | 0.00 | 47 | 1012.1 |
| 20260831001548 | 59 | 238 | 2.0 | 5.0 | 0.00 | 0.00 | 0.00 | 48 | 1012.5 |
| 20260831000042 | 58 | 120 | 0.0 | 5.0 | 0.00 | 0.00 | 0.00 | 47 | 1012.6 |
| 20260830234607 | 58 | 191 | 3.0 | 6.0 | 0.00 | 0.00 | 0.00 | 46 | 1012.9 |
| 20260830233046 | 58 | 199 | 3.0 | 6.0 | 0.00 | 0.00 | 0.00 | 46 | 1013.2 |
| 20260830231506 | 58 | 258 | 2.0 | 7.0 | 0.00 | 0.00 | 0.00 | 45 | 1013.2 |
| 20260830230053 | 57 | 288 | 0.0 | 3.0 | 0.00 | 0.00 | 0.00 | 49 | 1013.6 |
| 20260830224603 | 57 | 272 | 3.0 | 5.0 | 0.00 | 0.00 | 0.00 | 46 | 1013.6 |
| 20260830223001 | 58 | 285 | 3.0 | 6.0 | 0.00 | 0.00 | 0.00 | 47 | 1013.8 |
| 20260830221557 | 58 | 167 | 2.0 | 5.0 | 0.00 | 0.00 | 0.00 | 45 | 1014.0 |
| 20260830214559 | 58 | 233 | 0.0 | 4.0 | 0.00 | 0.00 | 0.00 | 46 | 1014.5 |
| 20260830213055 | 58 | 293 | 1.0 | 5.0 | 0.00 | 0.00 | 0.00 | 46 | 1014.5 |
| 20260830211555 | 57 | 32 | 1.0 | 6.0 | 0.00 | 0.00 | 0.00 | 47 | 1014.8 |
| 20260830204600 | 57 | 5 | 2.0 | 6.0 | 0.00 | 0.00 | 0.00 | 48 | 1015.1 |
| 20260830203053 | 57 | 41 | 1.0 | 4.0 | 0.00 | 0.00 | 0.00 | 50 | 1015.3 |
| 20260830201603 | 56 | 200 | 1.0 | 5.0 | 0.00 | 0.00 | 0.00 | 52 | 1015.5 |
| 20260830200052 | 55 | 53 | 2.0 | 6.0 | 0.00 | 0.00 | 0.00 | 52 | 1015.8 |
| 20260830194549 | 54 | 316 | 1.0 | 5.0 | 0.00 | 0.00 | 0.00 | 55 | 1016.1 |
| 20260830193058 | 54 | 40 | 2.0 | 4.0 | 0.00 | 0.00 | 0.00 | 56 | 1016.2 |
| 20260830191556 | 53 | 65 | 1.0 | 5.0 | 0.00 | 0.00 | 0.00 | 59 | 1016.5 |
| 20260830190050 | 53 | 326 | 0.0 | 4.0 | 0.00 | 0.00 | 0.00 | 61 | 1016.7 |
| 20260830184504 | 50 | 120 | 0.0 | 2.0 | 0.00 | 0.00 | 0.00 | 64 | 1017.0 |
| 20260830183058 | 49 | 93 | 2.0 | 4.0 | 0.00 | 0.00 | 0.00 | 66 | 1017.0 |